Weather History for Hettinger, ND

Change the Weather History Date:

Friday, January 25, 2013

  Actual Average Record
Temperature  
Mean Temperature 24 °F -  
Max Temperature 34 °F 28 °F 60 °F (2007)
Min Temperature 13 °F 6 °F -22 °F (1997)
Degree Days  
Heating Degree Days 41 48  
Month to date heating degree days 1171 1215  
Since 1 July heating degree days 4604 4794  
Moisture  
Dew Point 17 °F    
Average Humidity 79    
Maximum Humidity 92    
Minimum Humidity 59    
Precipitation  
Precipitation 0.00 in 0.01 in 0.01 in (2004)
Month to date precipitation 0.03 0.24  
Year to date precipitation 0.03 0.24  
Sea Level Pressure  
Sea Level Pressure 30.14 in    
Wind  
Wind Speed 7 mph (South)    
Max Wind Speed 17 mph    
Max Gust Speed 22 mph    
Visibility 10 miles    
Events      
T = Trace of Precipitation, MM = Missing Value Source: NWS Daily Summary

Daily Weather History Graph

Daily Weather History Graph

Search for Another Location

Airport:

Trip Planner

Search our weather history database for the weather conditions in past years. The results will help you decide how hot, cold, wet, or windy it might be!

Date:

Astronomy

Jan. 25, 2013 Rise Set
Actual Time 7:20 AM MST 4:46 PM MST
Civil Twilight 6:47 AM MST 5:18 PM MST
Nautical Twilight 6:11 AM MST 5:55 PM MST
Astronomical Twilight 5:36 AM MST 6:30 PM MST
Moon 3:45 PM MST (1/25) 6:01 AM MST (1/25)
Length of Visible Light 10h 30m
Length of Day
9h 25m
Waxing Gibbous, 98% of the Moon is Illuminated
Jan 25
Waxing Gibbous
Jan 26
Full
Feb 3
Last Quarter
Feb 10
New
Feb 17
First Quarter

Hourly Weather History & Observations

Time (MST) Temp. Windchill Dew Point Humidity Pressure Visibility Wind Dir Wind Speed Gust Speed Precip Events Conditions
12:53 AM 23.0 °F 11.1 °F 18.0 °F 81% 30.12 in 10.0 mi West 12.7 mph - N/A   Clear
1:53 AM 21.9 °F 10.4 °F 17.1 °F 82% 30.14 in 10.0 mi West 11.5 mph - N/A   Clear
2:53 AM 21.0 °F 9.9 °F 16.0 °F 81% 30.13 in 10.0 mi WNW 10.4 mph - N/A   Clear
3:53 AM 17.1 °F 5.8 °F 12.9 °F 84% 30.14 in 10.0 mi WNW 9.2 mph - N/A   Clear
4:53 AM 18.0 °F 6.9 °F 14.0 °F 84% 30.14 in 10.0 mi WNW 9.2 mph - N/A   Clear
5:53 AM 17.1 °F 7.6 °F 12.9 °F 84% 30.16 in 10.0 mi NW 6.9 mph - N/A   Clear
6:53 AM 12.9 °F 2.6 °F 10.0 °F 88% 30.16 in 10.0 mi West 6.9 mph - N/A   Clear
7:53 AM 14.0 °F 3.9 °F 10.0 °F 84% 30.18 in 10.0 mi West 6.9 mph - N/A   Clear
8:53 AM 21.0 °F 13.4 °F 15.1 °F 78% 30.17 in 10.0 mi WNW 5.8 mph - N/A   Clear
9:53 AM 26.1 °F 19.4 °F 17.1 °F 69% 30.18 in 10.0 mi NNW 5.8 mph - N/A   Clear
10:53 AM 30.9 °F 27.5 °F 19.0 °F 61% 30.18 in 10.0 mi Variable 3.5 mph - N/A   Clear
11:53 AM 32.0 °F - 19.0 °F 59% 30.16 in 10.0 mi Calm Calm - N/A   Clear
12:53 PM 32.0 °F 26.4 °F 19.9 °F 61% 30.13 in 10.0 mi East 5.8 mph - N/A   Clear
1:53 PM 30.0 °F 21.1 °F 21.0 °F 69% 30.14 in 10.0 mi ESE 10.4 mph - N/A   Clear
2:53 PM 30.9 °F 22.2 °F 21.0 °F 67% 30.14 in 10.0 mi SE 10.4 mph - N/A   Clear
3:53 PM 26.1 °F 16.8 °F 19.9 °F 78% 30.15 in 10.0 mi SE 9.2 mph - N/A   Clear
4:53 PM 23.0 °F 13.9 °F 18.0 °F 81% 30.16 in 10.0 mi ESE 8.1 mph - N/A   Clear
5:53 PM 21.9 °F 13.4 °F 17.1 °F 82% 30.15 in 10.0 mi SE 6.9 mph - N/A   Clear
6:53 PM 21.0 °F 12.4 °F 17.1 °F 85% 30.15 in 10.0 mi SSE 6.9 mph - N/A   Clear
7:53 PM 19.9 °F 12.1 °F 17.1 °F 89% 30.14 in 10.0 mi SE 5.8 mph - N/A   Clear
8:53 PM 19.0 °F 11.1 °F 16.0 °F 88% 30.12 in 10.0 mi SE 5.8 mph - N/A   Clear
9:53 PM 21.9 °F 12.5 °F 18.0 °F 85% 30.09 in 10.0 mi SE 8.1 mph - N/A   Clear
10:53 PM 23.0 °F 14.7 °F 19.0 °F 85% 30.07 in 10.0 mi SSE 6.9 mph - N/A   Clear
11:53 PM 23.0 °F 18.4 °F 19.0 °F 85% 30.05 in 10.0 mi SSE 3.5 mph - N/A   Clear